Weather Roundup
Issued by NWS

Home | Current Version | Previous Version | Text Only | Print | Product List | Glossary On
Versions: 1 2 3 4 5 6 7 8 9 10 11 12 13 14 15 16 17 18 19 20 21 22 23 24 25 26 27 28 29 30 31 32 33 34 35 36 37 38 39 40 41 42 43 44 45 46 47 48 49 50
000
NZUS93 KARX 272059
HRRWXR

CURRENT HOURLY OBSERVATIONS ACROSS
MUCH OF THE UPPER MISSISSIPPI VALLEY
NATIONAL WEATHER SERVICE LA CROSSE WI
300 PM CST SAT DEC 27 2014


...SOUTHEAST MINNESOTA...


CITY           SKY/WX    TMP DP  RH WIND       PRES   REMARKS
ROCHESTER      CLOUDY    20  16  84 NW17      30.06R WCI   5
ROCHESTER/MAYO CLOUDY    22  17  82 W13G22    30.06R WCI  10
WINONA         CLOUDY    28  23  80 NW9       30.08S WCI  20
AUSTIN         PTSUNNY   18  14  86 W9        30.09R WCI   6
ALBERT LEA     SUNNY     18  12  79 W8        30.10R WCI   7
DODGE CENTER   MOSUNNY   19  16  86 W15       30.06S WCI   5
PRESTON        CLOUDY    21  18  87 W13       30.07R WCI   8
OWATONNA       SUNNY     18  12  79 W14       30.09R WCI   4
FARIBAULT      SUNNY     19  12  73 W7        30.10S WCI  10
$$

...ELSEWHERE IN MINNESOTA...


CITY           SKY/WX    TMP DP  RH WIND       PRES   REMARKS
MINNEAPOLIS    SUNNY     24  14  65 W7        30.08R WCI  16
INTNL FALLS    CLOUDY    15   6  67 W6        29.95R WCI   6
DULUTH         FAIR      22   7  52 W9        29.95R WCI  12
RED WING       SUNNY     27  18  69 W9        30.07S WCI  17
REDWOOD FALLS  SUNNY     18   9  68 W10       30.12F WCI   6
MANKATO        SUNNY     18   7  62 W9        30.11F WCI   6
WORTHINGTON    SUNNY     16 -27  13 W13       30.12R WCI   2
FAIRMONT       SUNNY     19   9  63 W9        30.12R WCI   9
$$

...SOUTHWEST WISCONSIN...


CITY           SKY/WX    TMP DP  RH WIND       PRES   REMARKS
LA CROSSE      CLOUDY    29  23  78 W13       30.06R WCI  19
PRAIRIE DU CHI MOSUNNY   32  24  73 W13       30.06S WCI  22
BOSCOBEL       CLOUDY    32  24  72 W6        30.06R WCI  26
LONE ROCK      CLOUDY    35  26  69 NW12      30.04R WCI  27
PLATTEVILLE    CLOUDY    31  27  85 W18G26    30.04S WCI  19
FORT MC COY    CLOUDY    30  26  83 W7        30.03R WCI  24
VIROQUA        CLOUDY    28  28  99 W9        30.02R WCI  19
WIS DELLS      NOT AVBL
$$

...ELSEWHERE IN WISCONSIN...


CITY           SKY/WX    TMP DP  RH WIND       PRES   REMARKS
MILWAUKEE      CLOUDY    37  28  70 W21G35    29.95R WCI  26
MADISON        CLOUDY    33  28  81 W8        29.99R WCI  26
GREEN BAY      CLOUDY    35  32  88 NW12      29.88R WCI  27
EAU CLAIRE     NOT AVBL
BLACK RVR FLS  CLOUDY    29  24  81 W10G18    30.02S WCI  20
MEDFORD        CLOUDY    27  23  84 NW10      29.93R WCI  17
WAUSAU         CLOUDY    31  26  82 NW14G22   29.91R WCI  21
WIS RAPIDS     CLOUDY    30  25  81 W14G24    29.98R WCI  19
MARSHFIELD     CLOUDY    29  23  78 NW15      29.96R WCI  18
RICE LAKE      SUNNY     23  14  70 W7        30.04R WCI  14
$$

...NORTHEAST IOWA...


CITY           SKY/WX    TMP DP  RH WIND       PRES   REMARKS
DECORAH        CLOUDY    25  21  86 W10G17    30.06R WCI  15
MASON CITY     MOSUNNY   19  13  77 NW15      30.13R WCI   5
CHARLES CITY   CLOUDY    21  19  93 NW14      30.12R WCI   8
OELWEIN        CLOUDY    27  23  86 NW16G22   30.10R WCI  14
$$

...ELSEWHERE IN IOWA...


CITY           SKY/WX    TMP DP  RH WIND       PRES   REMARKS
DES MOINES     PTSUNNY   29  20  69 NW18      30.19R WCI  16
IOWA CITY      CLOUDY    31  24  75 NW10      30.16R WCI  22
FORT DODGE     SUNNY     21  12  68 W10       30.16F WCI  10
$$

...NORTHERN ILLINOIS...


CITY           SKY/WX    TMP DP  RH WIND       PRES   REMARKS
CHICAGO-OHARE  CLOUDY    36  29  75 W21G28    30.01R WCI  25
CHICAGO-MIDWAY CLOUDY    39  31  72 W18G30    30.03R WCI  30
MOLINE         CLOUDY    33  25  72 W13G23    30.12R WCI  24
ROCKFORD       CLOUDY    34  26  72 W20G25    30.07R WCI  23
PEORIA         CLOUDY    38  28  67 NW12      30.10F WCI  30
$$

NOTE: "FAIR" INDICATES FEW OR NO CLOUDS BELOW 12,000 FEET WITH NO
SIGNIFICANT WEATHER AND/OR OBSTRUCTIONS TO VISIBILITY. WIND
SPEEDS ARE IN MILES-PER-HOUR.



USA.gov is the U.S. government's official web portal to all federal, state and local government web resources and services.